Pagrindinis puslapis
METAR-TAF:

METAR-TAF

Oro uostai :

Choremabadas, Iranas

platuma: 33-26-11N, ilguma: 048-17-09E, Aukštis: 1155 m

Dabartinis oras

Ataskaita buvo paskelbta 5 valandos ir 25 minutes, ne 16:30 UTC
Vėjas 2 kt iš Šiaurės/Šiaurės Vakarų
Temperatūra 25°C
Drėgmė 26%
Slėgis 1013 hPa
Matomumas 10 km arba daugiau
nėra debesų žemiau 1500 m ir nėra kamuolinių lietaus debesų

METAR: OICK 271630Z 34002KT CAVOK 25/04 Q1013

Laikas: 01:25 (21:55 UTC)


TAF: trūkstamas

Orai ataskaitas ir orų prognozės (METAR, TAF).

turimą stotys yra geltonos ir raudonos taškus žemėlapyje.

Perkelti pele per norėdami pamatyti stoties vardą.

Tada spustelėkite, norėdami matyti oro stebėjimo ir prognozės.

Norėdami pakeisti žemėlapį: spustelėkite ant žalios mygtukų su juodo kryžiaus žemyn,; žalią mygtuką su brūkšneliu, jei norite nutolinti; arba žalių rodyklių gretimoms žemėlapius.


METAR-TAF: